Location: Bonn
(50.7330°N, 7.1000°E)
Time: 09:13:03
(UTC+02:00)

Iridium 67 - Visible Passes

Search period start: 19 October 2017 00:00
Search period end: 29 October 2017 00:00
Orbit: 776 x 779 km, 86.4° (Epoch: 18 October)

Date Brightness Start Highest point End Pass type
(mag) Time Alt. Az. Time Alt. Az. Time Alt. Az.
19 Oct 8.2 22:57:35 10° N 22:58:09 13° N 22:58:09 13° N visible
20 Oct 8.0 22:24:01 10° N 22:24:42 14° N 22:24:42 14° N visible
21 Oct 7.9 21:50:37 10° N 21:51:15 13° N 21:51:15 13° N visible
21 Oct 8.5 23:31:40 10° NNW 23:31:43 10° NNW 23:31:43 10° NNW visible
22 Oct 7.9 21:17:26 10° NNE 21:17:48 12° NNE 21:17:48 12° NNE visible
22 Oct 8.3 22:57:48 10° NNW 22:58:16 13° NNW 22:58:16 13° NNW visible
23 Oct 8.0 22:24:08 10° N 22:24:51 14° N 22:24:51 14° N visible
24 Oct 7.8 21:50:37 10° N 21:51:26 15° N 21:51:26 15° N visible
25 Oct 7.8 21:17:18 10° N 21:18:01 14° NNE 21:18:01 14° NNE visible
25 Oct 8.3 22:58:05 10° NNW 22:58:29 12° NNW 22:58:29 12° NNW visible
26 Oct 7.8 20:44:13 10° NNE 20:44:36 11° NNE 20:44:36 11° NNE visible
26 Oct 8.1 22:24:18 10° N 22:25:05 14° NNW 22:25:05 14° NNW visible
27 Oct 7.8 21:50:41 10° N 21:51:41 16° N 21:51:41 16° N visible
28 Oct 7.6 21:17:15 10° N 21:18:17 16° N 21:18:17 16° N visible
28 Oct 8.4 22:58:28 10° NNW 22:58:46 11° NNW 22:58:46 11° NNW visible
